Tracking 34717 objects as of 14-Jul-2026
HD Live streaming from Space Station
objects crossing your sky now

STARLINK-31281

Track STARLINK-31281 now!
10-day predictions
STARLINK-31281 is classified as:


NORAD ID: 59077
Int'l Code: 2024-041D
Perigee: 489.3 km
Apogee: 491.1 km
Inclination: 43.0 °
Period: 94.3 minutes
Semi major axis: 6861 km
RCS: Unknown
Launch date: February 29, 2024
Source: United States (US)
Launch site: AIR FORCE EASTERN TEST RANGE (AFETR)
Your satellite tracking list
Your tracking list is empty




NASA's NSSDC Master Catalog

Two Line Element Set (TLE):
1 59077U 24041D   26194.81022244  .00003212  00000-0  12619-3 0  9994
2 59077  43.0029 318.1352 0001332 256.8935 103.1768 15.27575949133612
Source of the keplerian elements: AFSPC